Regional Weather Roundup
Issued by NWS

Home | Current Version | Previous Version | Graphics & Text | Print | Product List | Glossary On
Versions: 1 2 3 4 5 6 7 8 9 10 11 12 13 14 15 16 17 18 19 20 21 22 23 24 25 26 27 28 29 30 31 32 33 34 35 36 37 38 39 40 41 42 43 44 45 46 47 48 49 50
000
ASUS43 KOAX 251302
RWRNE

WEATHER ROUNDUP FOR NEBRASKA
NATIONAL WEATHER SERVICE OMAHA NE
700 AM CST SUN JAN 25 2015

NOTES: SATELLITE DATA IS BEING USED TO AUGMENT CLOUD COVER ABOVE
       12000 FEET.
       "FAIR" INDICATES FEW OR NO CLOUDS BELOW 12,000 FEET WITH NO
       SIGNIFICANT WEATHER AND/OR OBSTRUCTIONS TO VISIBILITY.

  * THESE STATIONS DO NOT REPORT WEATHER SUCH AS RAIN...SNOW OR FOG.

NEZ001>004-019>022-054>056-251400-
NEBRASKA PANHANDLE

CITY           SKY/WX    TMP DP  RH WIND       PRES   REMARKS
SCOTTSBLUFF    CLEAR     34  27  75 W12       30.11R WCI  25
ALLIANCE       CLEAR     34  26  72 NW18      30.04F WCI  23
CHADRON        CLEAR     34  26  72 W16       30.06S WCI  24
SIDNEY         CLEAR     34  25  69 NW16      30.09S WCI  24
$$

NEZ057>060-069>072-079>082-251400-
SOUTHWEST NEBRASKA

CITY           SKY/WX    TMP DP  RH WIND       PRES   REMARKS
NORTH PLATTE   CLEAR     32  25  75 NW10      30.02R WCI  24
IMPERIAL       CLEAR     35  23  61 NW14      30.07R WCI  26
MCCOOK         CLEAR     38  25  59 NW18G32   30.03R WCI  28
$$

NEZ005>010-023>029-035>040-094-251400-
NORTH CENTRAL NEBRASKA

CITY           SKY/WX    TMP DP  RH WIND       PRES   REMARKS
VALENTINE      CLEAR     35  28  75 NW17G29   29.97R WCI  25
AINSWORTH      CLOUDY    36  30  79 NW20G29   29.96S WCI  25
BROKEN BOW     CLEAR     36  28  73 NW23G30   29.94R WCI  24
ORD            CLOUDY    37  29  72 NW18G31   29.92R WCI  27
$$

NEZ041-046>049-061>064-073>077-083>087-251400-
SOUTH CENTRAL NEBRASKA

CITY           SKY/WX    TMP DP  RH WIND       PRES   REMARKS
GRAND ISLAND   CLOUDY    39  32  76 N25G36    29.90R WCI  28
AURORA         CLOUDY    38  32  80 N23G33    29.89R WCI  27
HASTINGS       CLOUDY    40  30  67 N28G40    29.90R WCI  29
KEARNEY *      CLEAR     37  27  65 NW20      29.94R WCI  27
$$

NEZ011>018-030>034-042>045-251400-
NORTHEAST NEBRASKA

CITY           SKY/WX    TMP DP  RH WIND       PRES   REMARKS
NORFOLK        CLOUDY    34  31  88 NW22      29.88R WCI  22
ALBION         CLOUDY    36  32  87 N17G25    29.89R WCI  25
BLAIR          LGT RAIN  36  32  87 NW23G33   29.77R WCI  24
COLUMBUS *     CLOUDY    34  27  75 N21G33    29.87R WCI  22
FREMONT        CLOUDY    36  32  87 NW22G29   29.83R WCI  24
TEKAMAH        LGT RAIN  36  32  85 NW25G32   29.81R WCI  24
$$

NEZ050>053-065>068-078-088>093-251400-
SOUTHEAST NEBRASKA

CITY           SKY/WX    TMP DP  RH WIND       PRES   REMARKS
LINCOLN        CLOUDY    36  31  82 N25G31    29.83R WCI  24
OMAHA EPPLEY   CLOUDY    36  32  85 N25G32    29.77R WCI  24
FALLS CITY     CLOUDY    37  31  78 NW17G31   29.74R WCI  27
$$

NEZ044-045-051>053-067-251400-
OMAHA AREA

CITY           SKY/WX    TMP DP  RH WIND       PRES   REMARKS
OMAHA EPPLEY   CLOUDY    36  32  85 N25G32    29.77R WCI  24
BLAIR          LGT RAIN  36  32  87 NW23G33   29.77R WCI  24
FREMONT        CLOUDY    36  32  87 NW22G29   29.83R WCI  24
OFFUTT AFB     CLOUDY    36  32  85 NW22G32   29.76R WCI  25
$$



USA.gov is the U.S. government's official web portal to all federal, state and local government web resources and services.